Station 45004 (LLNR 16850) - EAST SUPERIOR -70 NM NE Marquette, MI Image indicating link to RSS feed of recent meteorological observations for station 45004


Conditions at 45004 as of
(10:00 pm EDT on 07/22/2024)
0200 GMT on 07/23/2024:
     

Click on the graph icon in the table below to see a time series plot of the last five days of that observation.

5-day plot - Wind Direction Wind Direction (WDIR): N ( 360 deg true )
5-day plot - Wind Speed Wind Speed (WSPD): 9.7 kts
5-day plot - Wind Gust Wind Gust (GST): 11.7 kts
5-day plot - Atmospheric Pressure Atmospheric Pressure (PRES):30.04 in
5-day plot - Pressure Tendency Pressure Tendency (PTDY):+0.00 in ( Steady )
5-day plot - Air Temperature Air Temperature (ATMP): 59.0 °F
5-day plot - Water Temperature Water Temperature (WTMP): 57.4 °F
5-day plot - Dew Point Dew Point (DEWP): 55.6 °F
5-day plot - Wind Speed at 10 Meters Wind Speed at 10 meters (WSPD10M): 9.7 kts
5-day plot - Wind Speed at 20 Meters Wind Speed at 20 meters (WSPD20M): 11.7 kts
5-day plot -  Wind Speed, Wind Gust and Atmospheric Pressure Combined plot of Wind Speed, Gust, and Air Pressure
Supplemental Measurements
Highest 1-minute Wind Speed
Time (EDT)5-day plot - 1-Minute Wind Speed WSPD 5-day plot - 1-Minute Wind Direction WDIR
9:51 pm 9.7 kts-
Previous observations
TIME
(EDT)
5-day plot - Wind Direction
WDIR
 
5-day plot - Wind Speed
WSPD
kts
5-day plot - Wind Gust
GST
kts
5-day plot - Wave Height
WVHT
ft
5-day plot - Dominant Wave Period
DPD
sec
5-day plot - Average Wave Period
APD
sec
5-day plot - Mean Wave Direction
MWD
 
5-day plot - Atmospheric Pressure
PRES
in
5-day plot - Pressure Tendency
PTDY
in
5-day plot - Air Temperature
ATMP
°F
5-day plot - Water Temperature
WTMP
°F
5-day plot - Dew Point
DEWP
°F
5-day plot - Salinity
SAL
psu
5-day plot - Visibility
VIS
nmi
5-day plot - Tide (above MLLW)
TIDE
ft
2024-07-22 09:50 pm N 9.7 11.7 0.7-2.2-30.04- 59.2 57.4 54.9---
2024-07-22 09:40 pm N 9.7 11.7 0.7-2.2-30.04- 59.4 57.2 54.0---
2024-07-22 09:30 pm N 11.7 11.7----30.03- 59.2 57.4 53.6---
2024-07-22 09:20 pm N 9.7 11.7 0.3-2.2-30.03- 59.0 57.2 54.7---
2024-07-22 09:10 pm N 11.7 11.7 0.3-2.2-30.03- 59.2 57.4 54.5---
2024-07-22 09:00 pm N 11.7 13.6----30.03+0.00 59.2 57.4 54.7---
2024-07-22 08:50 pm N 9.7 11.7 0.3-2.2-30.03- 59.2 57.7 55.2---
2024-07-22 08:40 pm N 9.7 11.7----30.03- 59.2 57.9 55.6---
2024-07-22 08:30 pm N 9.7 11.7----30.03- 59.2 57.9 55.6---
2024-07-22 08:20 pm N 9.7 11.7 0.3-2.5-30.03- 59.2 58.1 55.6---
2024-07-22 08:10 pm N 9.7 11.7 0.3-2.5-30.03- 59.0 57.9 55.8---
2024-07-22 08:00 pmNNE 9.7 11.7----30.03-0.01 59.2- 55.8---
2024-07-22 07:50 pmNNE 7.8 9.7 0.0-2.7-30.03- 59.2 58.1 55.6---
2024-07-22 07:40 pmNNE 7.8 9.7----30.03- 59.2 58.1 55.8---
2024-07-22 07:30 pm NE 5.8 7.8----30.03- 59.0 58.1 55.8---
2024-07-22 07:20 pm NE 5.8 7.8 0.0-2.9-30.03- 58.8 58.1 55.6---
2024-07-22 07:10 pmNNE 7.8 7.8 0.0-2.9-30.03- 58.8 58.3 55.4---
2024-07-22 07:00 pmNNE 7.8 9.7----30.03-0.01 58.8 58.3 55.2---
2024-07-22 06:50 pmNNE 7.8 7.8 0.0-3.1-30.03- 58.8 58.3 55.6---
2024-07-22 06:40 pmNNE 5.8 7.8 0.0-3.1-30.03- 58.8 58.5 56.3---
2024-07-22 06:30 pmNNE 5.8 5.8----30.03- 58.8 58.3 56.7---
2024-07-22 06:20 pm NE 3.9 5.8 0.0-3.0-30.03- 58.8 58.5 57.0---
2024-07-22 06:10 pmNNE 3.9 5.8 0.0-3.0-30.03- 59.0 58.5 57.0---
2024-07-22 06:00 pm NE 3.9 5.8----30.03-0.02 59.2 58.5 57.0---
2024-07-22 05:50 pm NE 3.9 5.8 0.3-2.8-30.03- 59.2 58.5 57.2---
2024-07-22 05:40 pm NE 3.9 5.8 0.3-2.8-30.03- 59.2 58.5 57.6---
2024-07-22 05:30 pm NE 3.9 5.8----30.04- 59.2 58.3 57.7---
2024-07-22 05:20 pm NE 5.8 5.8 0.3-3.2-30.03- 59.2 58.5 57.4---
2024-07-22 05:10 pmENE 5.8 5.8 0.3-3.2-30.03- 59.2 57.9 57.2---
2024-07-22 05:00 pm NE 5.8 5.8----30.04-0.01 58.8 57.9 57.0---
2024-07-22 04:50 pmNNE 5.8 5.8 0.0-2.9-30.04- 59.0 57.6 57.2---
2024-07-22 04:40 pm NE 3.9 5.8 0.0-2.9-30.04- 59.4 57.7 56.3---
2024-07-22 04:30 pmENE 1.9 3.9----30.05- 59.7 57.7 55.6---
2024-07-22 04:20 pmESE 3.9 3.9 0.0-2.7-30.04- 59.7 57.9 55.8---
2024-07-22 04:10 pmESE 3.9 3.9 0.0-2.7-30.04- 59.5 57.7 55.8---
2024-07-22 04:00 pmESE 3.9 3.9----30.04-0.02 59.7 57.7 55.8---
2024-07-22 03:50 pmESE 3.9 3.9 0.0-2.8-30.05- 59.5 57.9 55.6---
2024-07-22 03:40 pmESE 3.9 3.9 0.0-2.8-30.05- 59.5 58.3 55.2---
2024-07-22 03:30 pmESE 3.9 5.8----30.05- 59.5 57.9 55.2---
2024-07-22 03:20 pmESE 5.8 5.8 0.0-2.7-30.05- 59.5 57.7 55.0---
2024-07-22 03:10 pm SE 5.8 5.8 0.0-2.7-30.05- 59.4 57.6 54.9---
2024-07-22 03:00 pm SE 5.8 7.8----30.05-0.02 59.4 57.9 54.7---
2024-07-22 02:50 pm SE 5.8 7.8 0.0-2.6-30.05- 59.4 57.4 54.9---
2024-07-22 02:40 pm SE 5.8 7.8----30.05- 59.2 57.4 54.9---
2024-07-22 02:30 pm SE 5.8 7.8----30.05- 59.2 57.4 54.5---
2024-07-22 02:20 pm SE 5.8 5.8 0.0-2.7-30.05- 59.0 57.4 54.3---
2024-07-22 02:10 pm SE 5.8 5.8 0.0-2.7-30.05- 59.0 57.2 54.3---
2024-07-22 02:00 pm SE 5.8 5.8----30.05-0.03 58.8 57.0 54.3---
2024-07-22 01:50 pm SE 5.8 5.8 0.0-2.7-30.05- 58.8 57.2 54.5---
2024-07-22 01:40 pm SE 5.8 5.8----30.05- 58.6 57.0 54.5---
2024-07-22 01:30 pm SE 5.8 5.8----30.05- 58.5 57.0 54.7---
2024-07-22 01:20 pm SE 5.8 5.8 0.0-2.8-30.06- 58.5 56.8 54.9---
2024-07-22 01:10 pm SE 5.8 5.8 0.0-2.8-30.06- 58.3 56.8 55.0---
2024-07-22 01:00 pm SE 5.8 5.8----30.06-0.02 58.1 56.7 55.0---
2024-07-22 12:50 pm SE 5.8 5.8 0.0-2.9-30.06- 58.1 56.8 55.0---
2024-07-22 12:40 pm SE 5.8 7.8----30.06- 58.1 56.5 55.4---
2024-07-22 12:30 pm SE 5.8 5.8----30.07- 57.9 56.7 55.6---
2024-07-22 12:20 pm SE 5.8 7.8 0.0-3.0-30.07- 57.9 56.5 55.9---
2024-07-22 12:10 pm SE 7.8 7.8 0.0-3.0-30.07- 57.7 56.5 55.9---
2024-07-22 12:00 pm SE 7.8 7.8----30.07+0.00 57.6 55.9 56.1---
2024-07-22 11:50 am SE 5.8 7.8 0.0-3.4-30.07- 57.6 56.5 56.1---
2024-07-22 11:40 am SE 5.8 7.8----30.07- 57.6 55.9 55.9---
2024-07-22 11:30 amESE 5.8 5.8----30.07- 57.7 55.9 55.9---
2024-07-22 11:20 amESE 3.9 5.8 0.3-3.5-30.07- 57.7 55.8 55.6---
2024-07-22 11:10 amESE 3.9 5.8 0.3-3.5-30.08- 57.7 55.8 55.6---
2024-07-22 11:00 am E 3.9 3.9----30.08+0.00 57.7 55.9 55.6---
2024-07-22 10:50 amESE 3.9 3.9 0.0-3.3-30.08- 57.6 56.1 55.2---
2024-07-22 10:40 amESE 3.9 3.9 0.0-3.3-30.08- 57.4 56.1 55.2---
2024-07-22 10:30 amESE 3.9 3.9----30.08- 57.4 56.3 55.0---
2024-07-22 10:20 amESE 3.9 3.9 0.3-3.5-30.08- 57.6 56.1 55.0---
2024-07-22 10:10 am SE 3.9 3.9 0.3-3.5-30.08- 57.7 56.3 54.7---
2024-07-22 10:00 amSSE 3.9 3.9----30.08+0.00 57.6 55.9 54.5---
2024-07-22 09:50 amSSE 3.9 3.9 0.3-3.5-30.08- 57.4 55.0 54.5---
2024-07-22 09:40 amSSE 3.9 3.9 0.3-3.5-30.08- 57.4 55.6 54.7---
2024-07-22 09:30 amSSE 3.9 3.9----30.08- 57.2 55.4 54.7---
2024-07-22 09:20 amSSE 3.9 3.9 0.3-3.1-30.08- 57.2 55.8 55.0---
2024-07-22 09:10 amSSE 3.9 5.8 0.3-3.1-30.08- 56.8 55.6 55.2---
2024-07-22 09:00 amSSE 3.9 3.9----30.07+0.00 57.0 55.4 55.4---
2024-07-22 08:50 am SE 1.9 3.9 0.0-3.1-30.08- 57.0 55.8 55.6---
2024-07-22 08:40 am SE 1.9 1.9----30.08- 57.0 55.9 55.9---
2024-07-22 08:30 am SE 1.9 1.9----30.08- 57.0 55.6 56.1---
2024-07-22 08:20 am SE 1.9 1.9 0.0-3.0-30.08- 56.7 55.8 56.1---
2024-07-22 08:10 amSSE 3.9 3.9 0.0-3.0-30.08- 56.5 55.9 56.1---
2024-07-22 08:00 amSSE 3.9 3.9----30.08- 56.5 56.3 56.3---
2024-07-22 07:50 amSSE 3.9 3.9 0.0-3.0-30.08- 56.5 56.5 56.3---
2024-07-22 07:40 am SE 1.9 3.9----30.08- 56.7 56.3 56.5---
2024-07-22 07:30 am- 0.0 1.9----30.08- 56.5 56.5 56.3---
2024-07-22 07:20 am- 0.0 1.9 0.0-3.1-30.09- 56.5 56.7 56.3---
2024-07-22 07:10 am NE 1.9 1.9 0.0-3.1-30.08- 56.7 56.7 56.5---
2024-07-22 07:00 am E 1.9 1.9----30.08-0.01 56.7 56.8 56.5---
2024-07-22 06:50 am- 0.0 1.9 0.0-3.1-30.08- 56.7 56.8 56.5---
2024-07-22 06:40 am- 0.0 0.0----30.08- 56.5 56.3 56.3---
2024-07-22 06:30 am- 0.0 1.9----30.08- 56.8 57.0 56.7---
2024-07-22 06:20 amSSW 1.9 1.9 0.0-3.1-30.08- 56.8 56.8 56.7---
2024-07-22 06:10 amSSW 1.9 1.9----30.07- 57.0 57.0 56.8---
2024-07-22 06:00 am S 3.9 3.9----30.07-0.03 57.0 56.8 56.8---
2024-07-22 05:50 am S 3.9 3.9 0.0-3.2-30.08- 57.0 56.5 56.8---
2024-07-22 05:40 am S 3.9 3.9 0.0-3.2-30.07- 57.2 55.8 57.0---
2024-07-22 05:30 amSSW 1.9 3.9----30.08- 57.4 57.2 57.2---
2024-07-22 05:20 am SW 1.9 1.9----30.08- 57.4 56.5 57.2---
2024-07-22 05:10 amSSW 3.9 3.9----30.08- 57.4 56.8 57.2---
2024-07-22 05:00 am---------- 55.8----
2024-07-22 04:50 am SW 3.9 3.9 0.0-3.1-30.08- 57.6 55.6 57.2---
2024-07-22 04:40 am SW 3.9 3.9 0.0-3.1-30.09- 57.7 56.1 56.8---
2024-07-22 04:30 am SW 3.9 3.9----30.08- 57.9 56.3 56.8---
2024-07-22 04:20 am SW 3.9 3.9 0.0-3.3-30.09- 57.9 57.2 57.0---
2024-07-22 04:10 amWSW 3.9 3.9 0.0-3.3-30.09- 57.7 57.7 57.2---
2024-07-22 04:00 am SW 3.9 3.9----30.09-0.04 57.7 57.7 57.4---
2024-07-22 03:50 amWSW 3.9 3.9 0.0-3.2-30.09- 57.6 57.6 57.4---
2024-07-22 03:40 am SW 3.9 3.9 0.0-3.2-30.09- 57.6 57.4 57.2---
2024-07-22 03:30 am SW 3.9 3.9----30.10- 57.6 57.4 57.2---
2024-07-22 03:20 am SW 3.9 3.9 0.0-2.9-30.10- 57.6 57.4 57.2---
2024-07-22 03:10 am SW 3.9 3.9 0.0-2.9-30.10- 57.6 57.2 57.0---
2024-07-22 03:00 am SW 3.9 3.9----30.10-0.02 57.7 57.2 57.0---
2024-07-22 02:50 am SW 3.9 3.9 0.0-2.9-30.11- 57.9 56.8 56.8---
2024-07-22 02:40 amWSW 3.9 5.8----30.11- 57.9 56.7 56.7---
2024-07-22 02:30 am SW 3.9 5.8----30.11- 57.9 56.7 56.8---
2024-07-22 02:20 amWSW 3.9 3.9 0.0-3.2-30.11- 58.1 56.3 57.0---
2024-07-22 02:10 am SW 3.9 5.8 0.0-3.2-30.11- 58.3 56.7 57.2---
2024-07-22 02:00 am SW 3.9 5.8----30.11-0.02 58.1 57.2 57.0---
2024-07-22 01:50 am SW 3.9 3.9 0.0-3.0-30.12- 58.3 56.3 56.8---
2024-07-22 01:40 am SW 3.9 3.9----30.13- 58.5 56.8 57.0---
2024-07-22 01:30 am SW 3.9 3.9----30.13- 58.5 56.7 57.0---
2024-07-22 01:20 am SW 3.9 5.8 0.0-2.9-30.13- 58.6 56.3 57.2---
2024-07-22 01:10 am SW 3.9 3.9 0.0-2.9-30.13- 58.8 55.8 57.2---
2024-07-22 01:00 amWSW 1.9 3.9----30.13-0.01 58.5 55.2 57.2---
2024-07-22 12:50 am W 1.9 1.9 0.0-3.0-30.14- 58.1 54.9 57.4---
2024-07-22 12:40 am W 1.9 1.9----30.13- 58.6 54.9 57.6---
2024-07-22 12:30 am W 1.9 1.9----30.13- 58.6 55.0 57.4---
2024-07-22 12:20 amSSW 1.9 1.9 0.3-3.0-30.13- 58.5 55.4 57.6---
2024-07-22 12:10 am S 1.9 1.9 0.3-3.0-30.12- 58.6 55.0 57.6---
2024-07-22 12:00 am S 1.9 1.9----30.13-0.01 58.8 56.3 57.7---
2024-07-21 11:50 pm S 1.9 1.9 0.3-3.1-30.13- 58.6 55.8 57.6---
2024-07-21 11:40 pm- 0.0 1.9----30.13- 58.8 55.9 57.6---
2024-07-21 11:30 pm- 0.0 1.9----30.14- 58.6 56.8 57.7---
2024-07-21 11:20 pm S 1.9 1.9 0.3-3.1-30.14- 58.5 56.8 57.6---
2024-07-21 11:10 pmSSW 1.9 1.9 0.3-3.1-30.13- 58.8 55.9 57.7---
2024-07-21 11:00 pmSSW 3.9 3.9----30.14-0.01 59.0 55.8 57.9---
2024-07-21 10:50 pmSSW 3.9 3.9 0.3-3.1-30.14- 59.2 55.8 57.9---
2024-07-21 10:40 pmSSW 3.9 3.9----30.14- 59.5 56.3 57.7---
2024-07-21 10:30 pm SW 1.9 3.9----30.14- 59.2 55.4 57.9---
2024-07-21 10:20 pm SW 3.9 3.9 0.3-3.0-30.14- 59.0 57.0 57.9---
2024-07-21 10:10 pm SW 3.9 3.9 0.3-3.0-30.15- 59.0 56.5 58.1---
2024-07-21 10:00 pm SW 1.9 3.9----30.15-0.01 59.0 56.1 58.3---
2024-07-21 09:50 pm SW 3.9 3.9 0.3-2.9-30.15- 59.0 55.9 58.5---

Detailed Wave Summary
for 45004 as of
(9:40 pm EDT on 07/22/2024)
0140 GMT on 07/23/2024:

These wave data are displayed in rounded times.

     

Click on the graph icon in the table below to see a time series plot of the last five days of that observation.

5-day plot - Significant Wave Height Significant Wave Height (WVHT): 0.7 ft
5-day plot - Average Wave Period Average Wave Period (APD): 2.2 sec
Previous observations
TIME
(EDT)
5-day plot - Wave Height
WVHT
ft
5-day plot - Swell Height
SwH
ft
5-day plot - Swell Period
SwP
sec
5-day plot - Swell Direction
SwD
 
5-day plot - Wind Wave Height
WWH
ft
5-day plot - Wind Wave Period
WWP
sec
5-day plot - Wind Wave Direction
WWD
 
5-day plot - Wave Steepness
STEEPNESS
 
5-day plot - Average Wave Period
APD
sec
2024-07-22 09:10 pm 0.3------ N/A 2.2
2024-07-22 08:40 pm 0.3------ N/A 2.2
2024-07-22 08:10 pm 0.3------ N/A 2.5
2024-07-22 07:40 pm 0.0------ N/A 2.7
2024-07-22 07:10 pm 0.0------ N/A 2.9
2024-07-22 06:40 pm 0.0------ N/A 3.1
2024-07-22 06:10 pm 0.0------ N/A 3.0
2024-07-22 05:40 pm 0.3------ N/A 2.8
2024-07-22 05:10 pm 0.3------ N/A 3.2
2024-07-22 04:40 pm 0.0------ N/A 2.9
2024-07-22 04:10 pm 0.0------ N/A 2.7
2024-07-22 03:40 pm 0.0------ N/A 2.8
2024-07-22 03:10 pm 0.0------ N/A 2.7
2024-07-22 02:40 pm 0.0------ N/A 2.6
2024-07-22 02:10 pm 0.0------ N/A 2.7
2024-07-22 01:40 pm 0.0------ N/A 2.7
2024-07-22 01:10 pm 0.0------ N/A 2.8
2024-07-22 12:40 pm 0.0------ N/A 2.9
2024-07-22 12:10 pm 0.0------ N/A 3.0
2024-07-22 11:40 am 0.0------ N/A 3.4
2024-07-22 11:10 am 0.3------ N/A 3.5
2024-07-22 10:40 am 0.0------ N/A 3.3
2024-07-22 10:10 am 0.3------ N/A 3.5
2024-07-22 09:40 am 0.3------ N/A 3.5
2024-07-22 09:10 am 0.3------ N/A 3.1
2024-07-22 08:40 am 0.0------ N/A 3.1
2024-07-22 08:10 am 0.0------ N/A 3.0
2024-07-22 07:40 am 0.0------ N/A 3.0
2024-07-22 07:10 am 0.0------ N/A 3.1
2024-07-22 06:40 am 0.0------ N/A 3.1
2024-07-22 06:10 am 0.0------ N/A 3.1
2024-07-22 05:40 am 0.0------ N/A 3.2
2024-07-22 04:40 am 0.0------ N/A 3.1
2024-07-22 04:10 am 0.0------ N/A 3.3
2024-07-22 03:40 am 0.0------ N/A 3.2
2024-07-22 03:10 am 0.0------ N/A 2.9
2024-07-22 02:40 am 0.0------ N/A 2.9
2024-07-22 02:10 am 0.0------ N/A 3.2
2024-07-22 01:40 am 0.0------ N/A 3.0
2024-07-22 01:10 am 0.0------ N/A 2.9
2024-07-22 12:40 am 0.0------ N/A 3.0
2024-07-22 12:10 am 0.3------ N/A 3.0
2024-07-21 11:40 pm 0.3------ N/A 3.1
2024-07-21 11:10 pm 0.3------ N/A 3.1
2024-07-21 10:40 pm 0.3------ N/A 3.1
2024-07-21 10:10 pm 0.3------ N/A 3.0

Plot of wave energy versus frequency (and period)